Lapse_Rate
5.7 5.6 5.4 5.2 5.1 5.1 5.0 5.0 5.0 5.0 5.0 5.5 6.0 6.0 6.0 6.7 6.2 5.9 6.1 6.0 6.1 6.1 6.2 6.0 5.8 5.8 5.5 5.5 5.5 5.4 5.2 5.2 5.2
5.0 5.0 4.9 5.3 5.5 5.3 5.3 5.3 4.9 4.9 4.9 5.3 5.7 6.1 6.3 6.4 5.9 6.0 6.0 6.3 6.5 6.6 6.1 5.7 5.9 5.9 5.7 5.6 5.7 5.6 5.5 5.4 5.3
4.6 4.3 4.5 5.2 5.3 5.3 5.5 5.3 5.0 4.8 4.8 4.9 5.4 6.1 6.1 6.4 6.0 5.5 5.9 6.4 6.4 6.3 6.1 5.8 5.8 5.8 5.7 5.7 5.7 5.6 5.5 5.4 5.4
4.2 4.1 4.6 5.1 5.3 5.3 5.7 5.6 5.6 5.1 4.5 4.4 4.8 5.9 6.5 5.9 5.8 6.2 5.8 6.3 6.4 6.3 6.2 6.3 6.0 5.9 5.8 5.7 5.4 5.5 5.4 5.4 5.3
3.5 3.5 4.1 4.9 5.3 5.5 5.6 5.6 5.3 4.9 4.5 4.1 5.7 6.5 6.0 5.4 5.4 5.5 6.3 6.4 6.5 6.2 5.9 6.0 5.8 5.7 5.5 5.6 5.5 5.3 5.1 5.2 5.0
3.6 3.7 4.3 4.8 5.3 5.8 5.5 5.2 5.5 5.2 4.8 5.0 5.9 6.3 5.5 4.5 4.4 5.1 6.3 6.3 6.5 6.1 6.0 5.9 5.8 5.5 5.4 5.3 5.3 5.0 4.9 5.0 4.9
4.7 4.3 4.5 5.1 5.9 5.8 5.5 5.6 5.7 4.9 4.6 4.8 5.3 5.1 5.0 4.1 3.6 4.5 6.0 6.2 6.2 6.3 5.9 5.9 5.7 5.4 5.5 5.7 5.4 5.3 4.9 4.7 4.7
5.2 4.8 4.7 5.0 5.8 5.7 5.8 5.5 5.3 4.6 4.3 5.0 4.5 4.5 4.4 3.7 3.0 3.9 5.3 6.2 6.2 6.0 6.0 5.6 5.7 5.7 5.7 5.4 5.2 5.1 4.7 4.4 4.4
5.3 5.6 6.3 6.1 5.5 5.9 5.6 5.5 5.3 5.2 4.4 4.1 4.7 4.3 3.5 3.6 3.2 3.7 4.4 5.3 6.1 6.1 5.8 5.9 5.9 5.7 5.4 5.2 5.0 4.8 4.7 4.6 4.4
5.0 5.4 6.0 7.4 5.9 6.0 5.6 5.6 5.2 4.5 4.2 3.9 3.9 4.0 3.7 3.6 3.5 3.6 4.2 4.4 5.3 5.9 6.1 6.2 6.0 5.7 5.7 5.3 5.2 5.0 4.9 4.8 4.7
4.4 4.6 5.0 5.8 6.7 6.6 6.1 5.3 4.3 3.7 3.8 3.3 2.8 2.9 3.2 3.9 3.8 3.5 3.8 4.2 4.1 5.2 5.9 6.2 6.2 5.9 5.9 5.4 5.2 5.1 5.0 5.0 4.9
4.8 4.1 4.4 5.4 6.6 6.6 5.8 4.9 4.1 4.6 4.6 3.0 3.1 2.7 2.9 3.2 3.7 3.8 3.9 4.0 3.6 4.0 4.7 5.6 6.2 6.5 6.3 5.8 5.5 5.3 5.2 5.1 5.0
5.2 4.2 4.4 5.5 6.4 6.6 5.8 4.3 3.6 3.7 4.2 2.7 2.5 2.8 2.7 2.9 2.8 3.7 4.0 4.4 4.3 3.9 3.6 4.3 5.5 6.5 6.6 6.5 5.9 5.6 5.4 5.1 5.0
5.7 4.9 5.2 5.8 5.8 6.4 6.2 6.1 5.7 4.8 3.5 3.3 2.6 2.8 3.2 3.0 3.3 3.4 3.6 4.1 4.3 4.6 4.3 4.3 5.3 5.7 6.3 6.6 6.6 6.0 5.5 5.1 4.9
6.3 5.7 5.7 5.9 5.0 5.8 5.9 7.0 6.3 5.9 4.9 5.3 3.5 2.4 3.1 2.9 3.0 3.2 3.8 4.3 4.7 4.7 4.6 4.1 4.2 4.7 5.6 6.5 6.4 6.2 6.0 5.2 5.1
5.6 4.9 5.0 5.6 5.2 7.1 7.5 6.4 5.9 4.7 4.5 4.5 4.4 2.7 1.9 2.1 2.5 3.3 3.3 4.2 4.6 4.7 4.5 4.5 4.1 4.3 4.9 5.9 6.4 6.6 6.2 5.5 5.5
2.1 2.8 4.0 4.3 4.0 5.4 6.8 6.4 5.6 5.2 4.7 5.3 5.1 4.9 3.7 2.2 1.7 2.2 2.8 3.0 4.2 4.3 4.2 4.7 4.8 4.3 4.2 4.5 5.9 6.4 6.3 6.0 5.8
-1.0 -0.3 0.6 2.5 3.8 3.7 5.4 6.3 5.9 5.4 4.9 5.3 5.8 5.0 4.5 3.2 1.5 1.3 1.5 2.5 2.3 3.5 4.1 4.9 5.1 4.6 4.2 4.2 4.6 6.2 6.7 6.4 6.3
-1.1 -1.4 -1.2 -0.2 1.1 2.1 4.0 6.2 5.6 5.7 5.6 4.9 5.1 5.2 4.7 4.7 3.7 2.2 1.6 1.4 1.9 1.8 2.6 3.8 4.8 4.8 4.3 4.0 4.3 5.2 6.5 6.7 7.1
-1.7 -1.8 -1.6 -1.2 -0.5 -0.2 0.3 2.5 5.2 5.4 5.8 5.4 5.5 4.8 4.8 5.0 5.1 4.0 3.2 1.9 1.1 1.2 1.7 3.0 3.4 4.1 4.1 4.0 4.1 4.6 5.7 6.4 6.9
Wind_Speed
15 12 12 11 11 11 12 11 11 12 10 10 10 12 16 7 13 15 14 13 14 14 15 16 18 19 18 17 17 18 17 16 18
13 11 10 9 9 10 11 10 11 11 9 9 10 14 18 9 17 15 13 13 15 14 15 14 16 17 17 17 16 17 16 16 16
9 7 8 6 7 9 9 10 11 10 8 8 11 13 18 10 13 14 14 11 12 13 13 14 14 15 15 15 15 15 15 15 15
6 5 5 7 6 9 9 8 9 9 8 9 12 15 16 14 13 12 11 11 11 11 12 12 13 15 14 13 14 14 13 12 14
6 4 3 5 6 8 8 7 9 9 6 11 14 14 13 16 15 14 12 9 11 10 11 13 14 14 13 13 12 12 11 10 11
7 6 3 4 5 7 8 7 7 7 6 10 17 16 14 14 11 14 10 8 9 10 11 13 13 14 12 12 11 12 11 10 11
6 4 4 4 6 7 8 6 7 7 6 10 17 15 13 11 9 15 10 6 7 9 10 14 15 14 12 11 11 14 13 12 11
3 4 6 8 10 9 6 7 5 10 10 9 12 14 11 10 11 17 12 7 5 6 9 11 15 12 9 10 11 11 10 10 10
3 2 7 10 8 7 5 6 12 15 12 12 12 12 12 8 11 17 15 12 6 4 8 11 12 10 10 10 11 11 10 10 10
5 7 4 6 10 8 8 8 8 10 11 11 10 9 10 11 11 12 12 13 12 7 2 9 12 11 10 10 10 9 9 9 9
6 7 7 6 7 12 9 8 7 6 10 7 7 7 9 10 9 8 10 12 11 12 7 5 11 11 10 10 10 10 9 9 9
7 6 6 7 4 12 10 8 8 7 8 5 4 4 5 7 6 6 4 8 11 9 9 7 7 10 9 9 10 10 10 10 9
6 5 5 7 6 5 8 3 2 3 3 3 2 1 4 4 3 4 4 5 4 7 7 6 6 7 10 10 10 10 11 12 10
7 7 6 4 7 5 2 2 2 2 3 3 1 3 2 1 2 3 2 2 2 2 4 6 4 3 6 11 12 13 13 13 12
8 9 7 5 4 3 3 2 1 2 3 2 1 3 3 4 4 4 3 3 3 1 2 4 4 5 3 10 12 15 17 15 13
16 12 11 7 3 2 3 1 2 2 2 2 2 3 4 5 4 6 6 5 5 4 4 3 3 4 4 6 15 16 15 14 12
23 20 14 12 5 5 3 2 1 1 3 2 2 3 3 3 4 3 3 6 6 6 8 4 5 6 5 5 10 17 16 14 13
26 23 20 17 12 5 6 1 4 3 3 4 3 1 3 2 1 3 4 4 3 7 9 7 7 8 8 8 9 19 19 17 16
27 25 23 19 16 11 8 7 2 2 3 1 3 3 3 2 4 2 2 4 5 5 9 10 11 11 11 11 10 17 22 20 17
27 25 23 20 17 16 13 11 8 3 2 3 2 3 3 3 3 4 3 2 4 5 8 12 13 15 15 13 14 15 23 21 20
Wind_Direction
85 78 84 82 81 77 74 71 77 69 57 41 30 22 25 93 92 89 93 95 94 97 101 104 106 105 100 96 92 89 86 81 85
86 74 75 87 89 88 84 79 73 67 48 26 26 20 25 88 99 95 92 92 97 100 103 106 107 108 106 100 95 91 89 87 85
84 83 69 80 95 89 76 82 86 71 43 22 20 22 22 48 91 94 93 100 103 104 106 110 112 109 106 104 100 94 92 91 90
108 78 69 60 105 95 89 90 92 75 35 16 22 19 23 88 73 77 90 93 102 111 111 113 113 114 112 110 106 100 95 94 96
98 80 69 64 86 113 104 93 92 77 28 15 27 8 65 80 73 64 75 92 97 105 110 113 113 115 115 112 109 105 101 96 90
102 90 118 76 84 120 117 110 96 75 31 31 37 60 70 78 67 60 65 92 102 107 116 125 122 120 116 116 116 114 112 105 97
110 94 120 108 111 133 123 106 88 80 49 42 45 45 68 64 55 53 50 82 110 116 128 131 125 117 113 114 111 102 106 103 100
83 86 125 126 125 118 106 81 72 77 52 56 57 42 50 63 56 51 51 59 99 109 121 134 125 123 130 131 123 121 121 115 105
15 226 182 162 154 146 109 100 104 85 61 43 58 59 52 63 60 54 51 54 70 112 135 140 131 135 138 136 131 132 128 122 115
25 23 56 152 149 132 96 96 90 80 72 52 46 49 63 73 72 63 52 52 52 57 151 162 147 146 147 146 139 138 136 130 125
30 28 25 52 130 124 129 119 99 87 85 63 48 54 54 68 80 68 59 57 50 49 47 201 164 153 155 156 155 154 149 144 140
32 14 11 14 90 128 111 112 118 110 98 76 57 74 63 66 63 64 69 51 42 46 43 31 187 165 169 170 172 170 166 159 153
35 18 2 6 36 151 130 139 82 118 99 115 36 54 81 46 20 29 48 71 48 36 37 37 37 189 184 180 179 175 173 167 162
40 12 356 13 24 42 129 132 137 103 114 131 52 334 35 29 336 327 337 8 62 56 9 23 22 333 224 197 180 171 166 161 157
33 15 14 22 7 5 4 28 92 145 149 116 86 296 283 269 248 241 257 253 266 229 307 336 343 348 312 196 169 154 146 143 140
34 22 9 354 15 328 260 61 104 77 137 120 346 281 244 257 247 245 241 236 235 242 248 249 296 303 301 214 179 163 158 151 150
23 14 6 4 348 349 288 144 106 116 193 134 107 301 329 265 242 238 246 249 231 227 241 219 251 266 267 257 205 175 165 162 157
18 14 9 5 4 354 337 261 175 195 215 233 164 321 243 318 331 254 242 254 239 246 234 218 237 256 255 249 239 185 176 174 167
15 12 8 5 1 0 345 344 290 178 220 217 228 215 177 191 319 331 292 247 243 237 241 233 222 238 242 242 238 212 186 179 179
14 10 6 3 359 352 352 346 332 267 244 209 215 217 216 222 176 261 294 320 252 241 229 229 225 224 231 236 239 223 204 192 188